| time (UTC) | temp C | wind direction | speed KPH | gust KPH | rain 1hr cm | rain 24hr cm | rain mn cm | humidity % | barometer mb |
| 20260503202959 | 15 | 212 | 6.4 | 17.7 | 0.00 | 0.10 | 0.10 | 66 | 1012.2 |
| 20260503201459 | 13 | 138 | 1.6 | 11.3 | 0.00 | 0.10 | 0.10 | 74 | 1012.5 |
| 20260503200004 | 12 | 107 | 4.8 | 12.9 | 0.00 | 0.10 | 0.10 | 77 | 1013.1 |
| 20260503194459 | 11 | 91 | 1.6 | 4.8 | 0.03 | 0.10 | 0.10 | 78 | 1013.7 |
| 20260503193000 | 11 | 104 | 1.6 | 6.4 | 0.08 | 0.10 | 0.10 | 82 | 1014.1 |
| 20260503191458 | 10 | 292 | 3.2 | 4.8 | 0.10 | 0.10 | 0.10 | 79 | 1014.1 |
| 20260503184458 | 11 | 252 | 1.6 | 3.2 | 0.08 | 0.08 | 0.08 | 75 | 1014.9 |
| 20260503183001 | 12 | 266 | 3.2 | 11.3 | 0.03 | 0.03 | 0.03 | 72 | 1015.2 |
| 20260503181501 | 13 | 240 | 8.0 | 19.3 | 0.00 | 0.00 | 0.00 | 64 | 1015.3 |
| 20260503172959 | 16 | 192 | 6.4 | 22.5 | 0.00 | 0.00 | 0.00 | 52 | 1015.2 |
| 20260503171459 | 17 | 235 | 11.3 | 27.4 | 0.00 | 0.00 | 0.00 | 51 | 1015.4 |
| 20260503081457 | 3 | 219 | 0.0 | 3.2 | 0.00 | 0.00 | 0.00 | 75 | 1016.6 |
| 20260503071457 | 2 | 264 | 0.0 | 0.0 | 0.00 | 0.00 | 0.00 | 76 | 1016.6 |
| 20260503052958 | 3 | 264 | 0.0 | 0.0 | 0.00 | 0.00 | 0.00 | 76 | 1017.4 |
| 20260503050006 | 3 | 264 | 0.0 | 0.0 | 0.00 | 0.00 | 0.00 | 74 | 1017.6 |
| 20260503043000 | 3 | 264 | 0.0 | 0.0 | 0.00 | 0.00 | 0.00 | 72 | 1017.6 |
| 20260503041459 | 3 | 264 | 0.0 | 0.0 | 0.00 | 0.00 | 0.00 | 70 | 1017.5 |
| 20260503034501 | 4 | 264 | 0.0 | 0.0 | 0.00 | 0.00 | 0.00 | 68 | 1017.5 |
| 20260503033000 | 5 | 264 | 0.0 | 0.0 | 0.00 | 0.00 | 0.00 | 67 | 1017.5 |
| 20260503031459 | 5 | 264 | 0.0 | 0.0 | 0.00 | 0.00 | 0.00 | 66 | 1017.6 |
| 20260503030006 | 5 | 264 | 0.0 | 0.0 | 0.00 | 0.00 | 0.00 | 65 | 1017.6 |
| 20260503024500 | 6 | 264 | 0.0 | 0.0 | 0.00 | 0.00 | 0.00 | 63 | 1017.7 |
| 20260503023003 | 6 | 264 | 0.0 | 0.0 | 0.00 | 0.00 | 0.00 | 62 | 1017.6 |
| 20260503021500 | 6 | 264 | 0.0 | 0.0 | 0.00 | 0.00 | 0.00 | 61 | 1017.5 |
| 20260503020005 | 7 | 264 | 0.0 | 0.0 | 0.00 | 0.00 | 0.00 | 58 | 1017.4 |
| 20260503014459 | 7 | 264 | 0.0 | 3.2 | 0.00 | 0.00 | 0.00 | 54 | 1017.4 |
| 20260503013000 | 8 | 264 | 0.0 | 0.0 | 0.00 | 0.00 | 0.00 | 52 | 1017.2 |
| 20260503010004 | 8 | 264 | 0.0 | 1.6 | 0.00 | 0.00 | 0.00 | 49 | 1017.3 |
| 20260503004459 | 9 | 264 | 0.0 | 3.2 | 0.00 | 0.00 | 0.00 | 46 | 1017.3 |
| 20260503003000 | 9 | 263 | 1.6 | 4.8 | 0.00 | 0.00 | 0.00 | 44 | 1017.1 |
| 20260503001500 | 10 | 310 | 3.2 | 9.7 | 0.00 | 0.00 | 0.00 | 42 | 1017.0 |
| 20260503000005 | 10 | 328 | 4.8 | 14.5 | 0.00 | 0.00 | 0.00 | 42 | 1016.8 |
| 20260502233002 | 10 | 338 | 3.2 | 9.7 | 0.00 | 0.00 | 0.00 | 41 | 1016.8 |
| 20260502231459 | 11 | 266 | 3.2 | 14.5 | 0.00 | 0.00 | 0.00 | 42 | 1016.8 |
| 20260502230004 | 11 | 285 | 6.4 | 17.7 | 0.00 | 0.00 | 0.00 | 43 | 1016.9 |
| 20260502224500 | 11 | 320 | 4.8 | 16.1 | 0.00 | 0.00 | 0.00 | 42 | 1017.0 |
| 20260502223001 | 11 | 261 | 4.8 | 12.9 | 0.00 | 0.00 | 0.00 | 42 | 1017.0 |
| 20260502221500 | 11 | 258 | 6.4 | 20.9 | 0.00 | 0.00 | 0.00 | 40 | 1016.9 |
| 20260502220007 | 11 | 308 | 8.0 | 12.9 | 0.00 | 0.00 | 0.00 | 40 | 1016.8 |
| 20260502214459 | 11 | 341 | 6.4 | 19.3 | 0.00 | 0.00 | 0.00 | 41 | 1017.0 |
| 20260502211459 | 11 | 257 | 4.8 | 14.5 | 0.00 | 0.00 | 0.00 | 44 | 1016.9 |
| 20260502204500 | 11 | 300 | 6.4 | 14.5 | 0.00 | 0.00 | 0.00 | 43 | 1017.0 |